Location: Redwood City
(37.4850°N, 122.2350°W)
Time: 23:50:25
(UTC-07:00)

ISS - Visible Passes

Search period start: 19 August 2014 00:00
Search period end: 29 August 2014 00:00
Orbit: 413 x 419 km, 51.6° (Epoch: 20 August)

Date Brightness Start Highest point End Pass type
(mag) Time Alt. Az. Time Alt. Az. Time Alt. Az.
19 Aug -1.8 21:16:19 10° NNW 21:19:13 27° NNE 21:20:14 23° ENE visible
19 Aug 0.1 22:52:57 10° WNW 22:53:07 11° WNW 22:53:07 11° WNW visible
20 Aug -1.2 20:28:09 10° NNW 20:30:34 18° NNE 20:32:59 10° ENE visible
20 Aug -1.9 22:04:15 10° WNW 22:06:30 37° WNW 22:06:30 37° WNW visible
21 Aug -3.3 21:15:45 10° NW 21:19:05 71° NE 21:19:55 46° ESE visible
22 Aug -2.5 20:27:21 10° NW 20:30:32 39° NE 20:33:24 12° ESE visible
22 Aug -0.8 22:04:38 10° W 22:06:18 17° WSW 22:06:18 17° WSW visible
23 Aug -2.0 21:15:36 10° WNW 21:18:40 34° SW 21:19:51 25° S visible
24 Aug -3.0 20:26:53 10° NW 20:30:12 67° SW 20:33:29 10° SE visible
25 Aug -0.4 21:16:55 10° WSW 21:17:58 11° SW 21:19:01 10° SW visible
26 Aug -1.0 20:27:02 10° W 20:29:35 20° SW 20:32:08 10° S visible
